| time (UTC) | temp F | wind direction | speed MPH | gust MPH | rain 1hr in | rain 24hr in | rain mn in | humidity % | barometer mb |
| 20260508043005 | 59 | 203 | 0.0 | 5.0 | 0.00 | 0.00 | 0.00 | 76 | 1016.4 |
| 20260508042504 | 59 | 235 | 0.0 | 4.0 | 0.00 | 0.00 | 0.00 | 76 | 1016.2 |
| 20260508042004 | 59 | 229 | 1.0 | 4.0 | 0.00 | 0.00 | 0.00 | 76 | 1016.1 |
| 20260508041505 | 59 | 207 | 0.0 | 4.0 | 0.00 | 0.00 | 0.00 | 76 | 1016.3 |
| 20260508040504 | 59 | 206 | 0.0 | 4.0 | 0.00 | 0.00 | 0.00 | 76 | 1016.1 |
| 20260508040004 | 59 | 230 | 0.0 | 3.0 | 0.00 | 0.00 | 0.00 | 75 | 1016.1 |
| 20260508035505 | 59 | 222 | 0.0 | 3.0 | 0.00 | 0.00 | 0.00 | 75 | 1016.0 |
| 20260508035005 | 59 | 239 | 0.0 | 2.0 | 0.00 | 0.00 | 0.00 | 75 | 1015.8 |
| 20260508034504 | 59 | 223 | 1.0 | 5.0 | 0.00 | 0.00 | 0.00 | 75 | 1015.8 |
| 20260508033504 | 59 | 226 | 1.0 | 6.0 | 0.00 | 0.00 | 0.00 | 75 | 1015.9 |
| 20260508033004 | 59 | 336 | 0.0 | 3.0 | 0.00 | 0.00 | 0.00 | 75 | 1016.1 |
| 20260508032503 | 59 | 17 | 0.0 | 3.0 | 0.00 | 0.00 | 0.00 | 75 | 1015.9 |
| 20260508032004 | 59 | 184 | 0.0 | 2.0 | 0.00 | 0.00 | 0.00 | 75 | 1016.0 |
| 20260508031505 | 59 | 200 | 0.0 | 2.0 | 0.00 | 0.00 | 0.00 | 75 | 1015.8 |
| 20260508031005 | 59 | 206 | 0.0 | 3.0 | 0.00 | 0.00 | 0.00 | 75 | 1015.8 |
| 20260508030005 | 59 | 21 | 1.0 | 4.0 | 0.00 | 0.00 | 0.00 | 75 | 1015.8 |
| 20260508025504 | 59 | 78 | 1.0 | 4.0 | 0.00 | 0.00 | 0.00 | 75 | 1015.6 |
| 20260508025004 | 59 | 87 | 1.0 | 4.0 | 0.00 | 0.00 | 0.00 | 75 | 1015.8 |
| 20260508024504 | 59 | 50 | 1.0 | 4.0 | 0.00 | 0.00 | 0.00 | 75 | 1016.0 |
| 20260508024004 | 59 | 225 | 1.0 | 4.0 | 0.00 | 0.00 | 0.00 | 75 | 1016.0 |
| 20260508023504 | 59 | 212 | 1.0 | 4.0 | 0.00 | 0.00 | 0.00 | 75 | 1016.0 |
| 20260508023004 | 59 | 204 | 1.0 | 4.0 | 0.00 | 0.00 | 0.00 | 74 | 1016.1 |
| 20260508022504 | 59 | 290 | 0.0 | 4.0 | 0.00 | 0.00 | 0.00 | 75 | 1016.1 |
| 20260508021005 | 59 | 28 | 0.0 | 4.0 | 0.00 | 0.00 | 0.00 | 75 | 1016.1 |
| 20260508020004 | 59 | 103 | 0.0 | 3.0 | 0.00 | 0.00 | 0.00 | 75 | 1016.1 |
| 20260508015504 | 59 | 0 | 0.0 | 0.0 | 0.00 | 0.00 | 0.00 | 74 | 1016.0 |
| 20260508015004 | 59 | 0 | 0.0 | 0.0 | 0.00 | 0.00 | 0.00 | 74 | 1016.1 |
| 20260508014504 | 59 | 0 | 0.0 | 0.0 | 0.00 | 0.00 | 0.00 | 74 | 1016.1 |
| 20260508014004 | 59 | 0 | 0.0 | 0.0 | 0.00 | 0.00 | 0.00 | 74 | 1016.2 |
| 20260508013005 | 59 | 23 | 0.0 | 2.0 | 0.00 | 0.00 | 0.00 | 73 | 1016.2 |
| 20260508012504 | 59 | 0 | 0.0 | 0.0 | 0.00 | 0.00 | 0.00 | 74 | 1016.1 |
| 20260508012004 | 59 | 0 | 0.0 | 0.0 | 0.00 | 0.00 | 0.00 | 74 | 1016.5 |
| 20260508011004 | 59 | 106 | 0.0 | 2.0 | 0.00 | 0.00 | 0.00 | 74 | 1016.5 |
| 20260508010504 | 59 | 90 | 0.0 | 2.0 | 0.00 | 0.00 | 0.00 | 74 | 1016.2 |
| 20260508010005 | 59 | 76 | 0.0 | 2.0 | 0.00 | 0.00 | 0.00 | 74 | 1016.4 |
| 20260508005504 | 59 | 129 | 0.0 | 2.0 | 0.00 | 0.00 | 0.00 | 75 | 1016.6 |
| 20260508005004 | 60 | 104 | 0.0 | 4.0 | 0.00 | 0.00 | 0.00 | 75 | 1016.6 |
| 20260508004505 | 60 | 112 | 1.0 | 4.0 | 0.00 | 0.00 | 0.00 | 75 | 1016.9 |
| 20260508004004 | 60 | 115 | 1.0 | 4.0 | 0.00 | 0.00 | 0.00 | 76 | 1016.8 |
| 20260508003006 | 60 | 93 | 1.0 | 3.0 | 0.00 | 0.00 | 0.00 | 76 | 1016.8 |
| 20260508002504 | 60 | 109 | 1.0 | 3.0 | 0.00 | 0.00 | 0.00 | 76 | 1016.9 |
| 20260508002004 | 60 | 113 | 1.0 | 3.0 | 0.00 | 0.00 | 0.00 | 76 | 1016.7 |
| 20260508001505 | 60 | 95 | 0.0 | 3.0 | 0.00 | 0.00 | 0.00 | 76 | 1016.6 |
| 20260508001004 | 60 | 90 | 0.0 | 2.0 | 0.00 | 0.00 | 0.00 | 76 | 1016.8 |
| 20260508000504 | 60 | 90 | 0.0 | 2.0 | 0.00 | 0.00 | 0.00 | 75 | 1016.9 |
| 20260508000005 | 60 | 0 | 0.0 | 0.0 | 0.00 | 0.00 | 0.00 | 75 | 1016.8 |
| 20260507235504 | 60 | 0 | 0.0 | 0.0 | 0.00 | 0.00 | 0.00 | 75 | 1016.8 |
| 20260507235004 | 60 | 7 | 0.0 | 2.0 | 0.00 | 0.00 | 0.00 | 75 | 1016.9 |
| 20260507234504 | 60 | 6 | 0.0 | 2.0 | 0.00 | 0.00 | 0.00 | 75 | 1017.2 |
| 20260507234004 | 60 | 1 | 0.0 | 2.0 | 0.00 | 0.00 | 0.00 | 75 | 1017.1 |
| 20260507233504 | 60 | 0 | 0.0 | 0.0 | 0.00 | 0.00 | 0.00 | 74 | 1017.3 |
| 20260507233005 | 60 | 0 | 0.0 | 0.0 | 0.00 | 0.00 | 0.00 | 74 | 1017.3 |
| 20260507232504 | 60 | 0 | 0.0 | 0.0 | 0.00 | 0.00 | 0.00 | 74 | 1017.4 |
| 20260507232004 | 60 | 0 | 0.0 | 0.0 | 0.00 | 0.00 | 0.00 | 74 | 1017.4 |
| 20260507231505 | 60 | 90 | 0.0 | 1.0 | 0.00 | 0.00 | 0.00 | 74 | 1017.2 |
| 20260507231004 | 60 | 25 | 0.0 | 3.0 | 0.00 | 0.00 | 0.00 | 73 | 1017.2 |
| 20260507230504 | 61 | 24 | 0.0 | 3.0 | 0.00 | 0.00 | 0.00 | 73 | 1017.2 |
| 20260507230005 | 61 | 135 | 0.0 | 1.0 | 0.00 | 0.00 | 0.00 | 73 | 1017.4 |
| 20260507225004 | 61 | 123 | 0.0 | 3.0 | 0.00 | 0.00 | 0.00 | 72 | 1017.4 |
| 20260507224004 | 61 | 89 | 1.0 | 4.0 | 0.00 | 0.00 | 0.00 | 71 | 1017.5 |
| 20260507223004 | 62 | 86 | 0.0 | 3.0 | 0.00 | 0.00 | 0.00 | 69 | 1017.5 |
| 20260507222504 | 62 | 121 | 1.0 | 3.0 | 0.00 | 0.00 | 0.00 | 69 | 1017.4 |
| 20260507221505 | 62 | 133 | 1.0 | 4.0 | 0.00 | 0.00 | 0.00 | 68 | 1017.5 |
| 20260507220505 | 62 | 28 | 1.0 | 4.0 | 0.00 | 0.00 | 0.00 | 67 | 1017.5 |
| 20260507220005 | 62 | 41 | 1.0 | 4.0 | 0.00 | 0.00 | 0.00 | 67 | 1017.7 |
| 20260507215504 | 62 | 30 | 1.0 | 4.0 | 0.00 | 0.00 | 0.00 | 67 | 1017.6 |
| 20260507214504 | 62 | 336 | 2.0 | 7.0 | 0.00 | 0.00 | 0.00 | 67 | 1017.8 |
| 20260507214004 | 62 | 327 | 2.0 | 8.0 | 0.00 | 0.00 | 0.00 | 68 | 1017.7 |
| 20260507213504 | 62 | 323 | 1.0 | 8.0 | 0.00 | 0.00 | 0.00 | 68 | 1017.7 |
| 20260507213005 | 62 | 317 | 1.0 | 5.0 | 0.00 | 0.00 | 0.00 | 69 | 1017.7 |
| 20260507212005 | 62 | 316 | 2.0 | 6.0 | 0.00 | 0.00 | 0.00 | 69 | 1017.7 |
| 20260507211004 | 62 | 306 | 0.0 | 3.0 | 0.00 | 0.00 | 0.00 | 69 | 1017.8 |
| 20260507210504 | 62 | 341 | 0.0 | 3.0 | 0.00 | 0.00 | 0.00 | 69 | 1017.7 |
| 20260507210006 | 62 | 346 | 0.0 | 3.0 | 0.00 | 0.00 | 0.00 | 69 | 1017.8 |
| 20260507205504 | 62 | 337 | 1.0 | 4.0 | 0.00 | 0.00 | 0.00 | 69 | 1017.9 |
| 20260507204505 | 62 | 315 | 0.0 | 2.0 | 0.00 | 0.00 | 0.00 | 70 | 1017.7 |
| 20260507204005 | 62 | 323 | 1.0 | 4.0 | 0.00 | 0.00 | 0.00 | 70 | 1017.4 |
| 20260507203005 | 63 | 340 | 0.0 | 2.0 | 0.00 | 0.00 | 0.00 | 69 | 1017.4 |
| 20260507202504 | 63 | 357 | 0.0 | 2.0 | 0.00 | 0.00 | 0.00 | 69 | 1017.4 |
| 20260507202004 | 63 | 332 | 0.0 | 3.0 | 0.00 | 0.00 | 0.00 | 69 | 1017.7 |
| 20260507201504 | 63 | 311 | 0.0 | 3.0 | 0.00 | 0.00 | 0.00 | 68 | 1017.7 |
| 20260507200504 | 63 | 329 | 0.0 | 3.0 | 0.00 | 0.00 | 0.00 | 67 | 1017.7 |
| 20260507195503 | 63 | 304 | 0.0 | 5.0 | 0.00 | 0.00 | 0.00 | 66 | 1017.7 |
| 20260507195004 | 63 | 313 | 0.0 | 5.0 | 0.00 | 0.00 | 0.00 | 66 | 1017.6 |
| 20260507194505 | 63 | 314 | 0.0 | 3.0 | 0.00 | 0.00 | 0.00 | 65 | 1017.7 |
| 20260507194004 | 63 | 355 | 0.0 | 3.0 | 0.00 | 0.00 | 0.00 | 64 | 1017.7 |
| 20260507193504 | 63 | 30 | 0.0 | 3.0 | 0.00 | 0.00 | 0.00 | 64 | 1017.8 |
| 20260507193005 | 63 | 12 | 0.0 | 4.0 | 0.00 | 0.00 | 0.00 | 63 | 1017.9 |
| 20260507192504 | 63 | 339 | 1.0 | 4.0 | 0.00 | 0.00 | 0.00 | 63 | 1017.6 |
| 20260507192003 | 64 | 327 | 1.0 | 4.0 | 0.00 | 0.00 | 0.00 | 62 | 1017.6 |
| 20260507191505 | 64 | 340 | 0.0 | 3.0 | 0.00 | 0.00 | 0.00 | 62 | 1017.6 |
| 20260507191004 | 64 | 356 | 1.0 | 4.0 | 0.00 | 0.00 | 0.00 | 62 | 1017.6 |
| 20260507190504 | 64 | 13 | 1.0 | 4.0 | 0.00 | 0.00 | 0.00 | 61 | 1017.6 |
| 20260507185505 | 64 | 60 | 1.0 | 4.0 | 0.00 | 0.00 | 0.00 | 60 | 1017.6 |
| 20260507185004 | 64 | 76 | 1.0 | 4.0 | 0.00 | 0.00 | 0.00 | 60 | 1017.6 |
| 20260507184504 | 64 | 51 | 1.0 | 4.0 | 0.00 | 0.00 | 0.00 | 59 | 1017.6 |
| 20260507184003 | 64 | 7 | 2.0 | 4.0 | 0.00 | 0.00 | 0.00 | 59 | 1017.6 |
| 20260507183503 | 64 | 354 | 2.0 | 5.0 | 0.00 | 0.00 | 0.00 | 60 | 1017.3 |
| 20260507183004 | 65 | 335 | 2.0 | 5.0 | 0.00 | 0.00 | 0.00 | 60 | 1017.3 |
| 20260507182504 | 65 | 284 | 1.0 | 4.0 | 0.00 | 0.00 | 0.00 | 61 | 1017.4 |
| 20260507182004 | 65 | 283 | 1.0 | 7.0 | 0.00 | 0.00 | 0.00 | 61 | 1017.3 |
| 20260507181505 | 65 | 299 | 2.0 | 7.0 | 0.00 | 0.00 | 0.00 | 61 | 1017.3 |
| 20260507181004 | 65 | 300 | 2.0 | 6.0 | 0.00 | 0.00 | 0.00 | 60 | 1017.1 |
| 20260507180504 | 66 | 303 | 2.0 | 6.0 | 0.00 | 0.00 | 0.00 | 59 | 1017.2 |
| 20260507180005 | 66 | 310 | 3.0 | 8.0 | 0.00 | 0.00 | 0.00 | 58 | 1017.0 |
| 20260507175504 | 66 | 314 | 3.0 | 8.0 | 0.00 | 0.00 | 0.00 | 58 | 1017.1 |
| 20260507175003 | 66 | 318 | 4.0 | 8.0 | 0.00 | 0.00 | 0.00 | 58 | 1017.1 |
| 20260507174505 | 66 | 316 | 3.0 | 8.0 | 0.00 | 0.00 | 0.00 | 58 | 1017.3 |
| 20260507174005 | 67 | 308 | 2.0 | 6.0 | 0.00 | 0.00 | 0.00 | 58 | 1017.1 |
| 20260507173505 | 67 | 299 | 1.0 | 6.0 | 0.00 | 0.00 | 0.00 | 58 | 1016.8 |
| 20260507173005 | 67 | 290 | 1.0 | 5.0 | 0.00 | 0.00 | 0.00 | 57 | 1017.0 |
| 20260507172504 | 67 | 302 | 1.0 | 6.0 | 0.00 | 0.00 | 0.00 | 58 | 1017.1 |
| 20260507172004 | 67 | 309 | 1.0 | 6.0 | 0.00 | 0.00 | 0.00 | 57 | 1017.1 |
| 20260507171504 | 67 | 297 | 0.0 | 4.0 | 0.00 | 0.00 | 0.00 | 56 | 1016.8 |
| 20260507171004 | 67 | 270 | 0.0 | 3.0 | 0.00 | 0.00 | 0.00 | 55 | 1016.9 |
| 20260507170504 | 67 | 270 | 0.0 | 3.0 | 0.00 | 0.00 | 0.00 | 55 | 1016.9 |
| 20260507165504 | 67 | 273 | 1.0 | 4.0 | 0.00 | 0.00 | 0.00 | 54 | 1016.4 |
| 20260507165004 | 67 | 325 | 0.0 | 3.0 | 0.00 | 0.00 | 0.00 | 54 | 1016.6 |
| 20260507164004 | 68 | 60 | 2.0 | 5.0 | 0.00 | 0.00 | 0.00 | 54 | 1016.5 |
| 20260507163504 | 68 | 48 | 3.0 | 7.0 | 0.00 | 0.00 | 0.00 | 54 | 1016.5 |
| 20260507163005 | 68 | 37 | 3.0 | 7.0 | 0.00 | 0.00 | 0.00 | 54 | 1016.3 |
| 20260507162504 | 68 | 17 | 2.0 | 7.0 | 0.00 | 0.00 | 0.00 | 54 | 1016.2 |
| 20260507162004 | 68 | 22 | 3.0 | 13.0 | 0.00 | 0.00 | 0.00 | 54 | 1016.7 |
| 20260507161504 | 69 | 28 | 3.0 | 13.0 | 0.00 | 0.00 | 0.00 | 53 | 1016.6 |
| 20260507161004 | 70 | 18 | 2.0 | 9.0 | 0.00 | 0.00 | 0.00 | 50 | 1016.6 |
| 20260507160504 | 70 | 290 | 1.0 | 5.0 | 0.00 | 0.00 | 0.00 | 48 | 1016.7 |
| 20260507160005 | 71 | 313 | 2.0 | 9.0 | 0.00 | 0.00 | 0.00 | 47 | 1016.8 |
| 20260507155504 | 72 | 340 | 3.0 | 9.0 | 0.00 | 0.00 | 0.00 | 46 | 1016.9 |
| 20260507155004 | 73 | 348 | 2.0 | 8.0 | 0.00 | 0.00 | 0.00 | 44 | 1016.6 |
| 20260507154504 | 74 | 339 | 1.0 | 8.0 | 0.00 | 0.00 | 0.00 | 43 | 1016.5 |
| 20260507154004 | 75 | 311 | 1.0 | 4.0 | 0.00 | 0.00 | 0.00 | 40 | 1016.6 |
| 20260507153504 | 75 | 300 | 1.0 | 4.0 | 0.00 | 0.00 | 0.00 | 39 | 1016.7 |
| 20260507151506 | 74 | 353 | 1.0 | 6.0 | 0.00 | 0.00 | 0.00 | 43 | 1016.9 |
| 20260507150504 | 74 | 323 | 3.0 | 8.0 | 0.00 | 0.00 | 0.00 | 44 | 1017.0 |
| 20260507150005 | 74 | 337 | 3.0 | 8.0 | 0.00 | 0.00 | 0.00 | 44 | 1017.1 |
| 20260507145503 | 75 | 353 | 3.0 | 8.0 | 0.00 | 0.00 | 0.00 | 44 | 1016.9 |
| 20260507145004 | 75 | 354 | 3.0 | 7.0 | 0.00 | 0.00 | 0.00 | 44 | 1017.0 |
| 20260507144505 | 75 | 18 | 3.0 | 6.0 | 0.00 | 0.00 | 0.00 | 45 | 1016.8 |
| 20260507144004 | 75 | 36 | 2.0 | 9.0 | 0.00 | 0.00 | 0.00 | 44 | 1016.7 |
| 20260507143504 | 75 | 42 | 3.0 | 9.0 | 0.00 | 0.00 | 0.00 | 44 | 1016.9 |
| 20260507143005 | 75 | 41 | 3.0 | 8.0 | 0.00 | 0.00 | 0.00 | 43 | 1016.8 |
| 20260507142504 | 76 | 31 | 3.0 | 8.0 | 0.00 | 0.00 | 0.00 | 43 | 1016.8 |
| 20260507142004 | 76 | 1 | 3.0 | 8.0 | 0.00 | 0.00 | 0.00 | 43 | 1016.7 |
| 20260507141504 | 77 | 347 | 4.0 | 9.0 | 0.00 | 0.00 | 0.00 | 43 | 1016.7 |
| 20260507140504 | 78 | 6 | 3.0 | 9.0 | 0.00 | 0.00 | 0.00 | 39 | 1016.4 |
| 20260507140006 | 78 | 356 | 2.0 | 9.0 | 0.00 | 0.00 | 0.00 | 41 | 1016.4 |
| 20260507135504 | 78 | 15 | 3.0 | 9.0 | 0.00 | 0.00 | 0.00 | 42 | 1016.4 |
| 20260507135005 | 78 | 353 | 5.0 | 9.0 | 0.00 | 0.00 | 0.00 | 40 | 1016.3 |
| 20260507134004 | 78 | 7 | 4.0 | 9.0 | 0.00 | 0.00 | 0.00 | 40 | 1016.2 |
| 20260507133503 | 77 | 22 | 4.0 | 12.0 | 0.00 | 0.00 | 0.00 | 39 | 1016.2 |
| 20260507133004 | 78 | 36 | 4.0 | 12.0 | 0.00 | 0.00 | 0.00 | 38 | 1016.2 |
| 20260507132503 | 78 | 37 | 3.0 | 7.0 | 0.00 | 0.00 | 0.00 | 38 | 1016.1 |
| 20260507132003 | 77 | 355 | 3.0 | 7.0 | 0.00 | 0.00 | 0.00 | 40 | 1016.2 |
| 20260507131504 | 77 | 345 | 2.0 | 9.0 | 0.00 | 0.00 | 0.00 | 41 | 1016.1 |
| 20260507131003 | 76 | 33 | 4.0 | 11.0 | 0.00 | 0.00 | 0.00 | 41 | 1016.0 |
| 20260507130503 | 76 | 39 | 5.0 | 11.0 | 0.00 | 0.00 | 0.00 | 39 | 1016.1 |
| 20260507130005 | 76 | 15 | 4.0 | 11.0 | 0.00 | 0.00 | 0.00 | 39 | 1016.3 |
| 20260507125503 | 76 | 16 | 5.0 | 13.0 | 0.00 | 0.00 | 0.00 | 39 | 1016.2 |
| 20260507125004 | 77 | 50 | 5.0 | 13.0 | 0.00 | 0.00 | 0.00 | 40 | 1016.3 |
| 20260507124504 | 77 | 55 | 6.0 | 13.0 | 0.00 | 0.00 | 0.00 | 40 | 1016.5 |
| 20260507124003 | 77 | 65 | 7.0 | 13.0 | 0.00 | 0.00 | 0.00 | 39 | 1016.7 |
| 20260507123004 | 78 | 42 | 5.0 | 13.0 | 0.00 | 0.00 | 0.00 | 40 | 1016.8 |
| 20260507122504 | 77 | 37 | 5.0 | 12.0 | 0.00 | 0.00 | 0.00 | 42 | 1017.0 |
| 20260507121504 | 77 | 35 | 6.0 | 14.0 | 0.00 | 0.00 | 0.00 | 41 | 1017.1 |
| 20260507121004 | 77 | 40 | 6.0 | 12.0 | 0.00 | 0.00 | 0.00 | 39 | 1017.1 |
| 20260507120503 | 78 | 25 | 7.0 | 13.0 | 0.00 | 0.00 | 0.00 | 38 | 1017.1 |
| 20260507120005 | 78 | 29 | 6.0 | 13.0 | 0.00 | 0.00 | 0.00 | 37 | 1017.0 |
| 20260507115503 | 79 | 33 | 6.0 | 14.0 | 0.00 | 0.00 | 0.00 | 36 | 1017.0 |
| 20260507115004 | 79 | 24 | 7.0 | 14.0 | 0.00 | 0.00 | 0.00 | 35 | 1016.9 |
| 20260507114504 | 79 | 24 | 6.0 | 13.0 | 0.00 | 0.00 | 0.00 | 35 | 1016.9 |
| 20260507114003 | 79 | 20 | 7.0 | 15.0 | 0.00 | 0.00 | 0.00 | 36 | 1017.0 |
| 20260507113504 | 79 | 25 | 7.0 | 15.0 | 0.00 | 0.00 | 0.00 | 35 | 1017.0 |
| 20260507113005 | 79 | 44 | 7.0 | 13.0 | 0.00 | 0.00 | 0.00 | 36 | 1016.9 |
| 20260507112504 | 79 | 46 | 6.0 | 13.0 | 0.00 | 0.00 | 0.00 | 37 | 1016.9 |
| 20260507112004 | 79 | 40 | 5.0 | 12.0 | 0.00 | 0.00 | 0.00 | 36 | 1017.1 |
| 20260507111506 | 79 | 46 | 5.0 | 13.0 | 0.00 | 0.00 | 0.00 | 37 | 1017.2 |
| 20260507111004 | 79 | 31 | 6.0 | 14.0 | 0.00 | 0.00 | 0.00 | 37 | 1017.2 |
| 20260507110504 | 79 | 15 | 7.0 | 14.0 | 0.00 | 0.00 | 0.00 | 37 | 1017.1 |
| 20260507110005 | 79 | 30 | 6.0 | 14.0 | 0.00 | 0.00 | 0.00 | 35 | 1016.9 |
| 20260507105004 | 78 | 53 | 7.0 | 13.0 | 0.00 | 0.00 | 0.00 | 37 | 1017.0 |
| 20260507104504 | 78 | 54 | 7.0 | 13.0 | 0.00 | 0.00 | 0.00 | 36 | 1017.1 |
| 20260507104004 | 78 | 46 | 7.0 | 13.0 | 0.00 | 0.00 | 0.00 | 37 | 1017.2 |
| 20260507103504 | 78 | 48 | 7.0 | 13.0 | 0.00 | 0.00 | 0.00 | 35 | 1017.0 |
| 20260507103005 | 79 | 50 | 7.0 | 12.0 | 0.00 | 0.00 | 0.00 | 36 | 1016.9 |
| 20260507102504 | 78 | 45 | 7.0 | 13.0 | 0.00 | 0.00 | 0.00 | 40 | 1016.9 |
| 20260507102006 | 78 | 42 | 7.0 | 13.0 | 0.00 | 0.00 | 0.00 | 38 | 1017.0 |
| 20260507101507 | 78 | 39 | 6.0 | 12.0 | 0.00 | 0.00 | 0.00 | 40 | 1017.0 |
| 20260507100005 | 78 | 47 | 5.0 | 10.0 | 0.00 | 0.00 | 0.00 | 43 | 1017.0 |
| 20260507095504 | 78 | 31 | 5.0 | 10.0 | 0.00 | 0.00 | 0.00 | 41 | 1016.9 |
| 20260507095004 | 77 | 30 | 5.0 | 9.0 | 0.00 | 0.00 | 0.00 | 41 | 1017.1 |
| 20260507094504 | 78 | 43 | 5.0 | 9.0 | 0.00 | 0.00 | 0.00 | 39 | 1017.0 |
| 20260507094003 | 78 | 56 | 5.0 | 9.0 | 0.00 | 0.00 | 0.00 | 40 | 1016.8 |
| 20260507093504 | 78 | 66 | 5.0 | 9.0 | 0.00 | 0.00 | 0.00 | 41 | 1016.9 |
| 20260507093005 | 78 | 60 | 5.0 | 8.0 | 0.00 | 0.00 | 0.00 | 42 | 1016.9 |
| 20260507092503 | 77 | 43 | 4.0 | 11.0 | 0.00 | 0.00 | 0.00 | 43 | 1017.2 |
| 20260507092003 | 77 | 15 | 4.0 | 11.0 | 0.00 | 0.00 | 0.00 | 44 | 1016.8 |
| 20260507091504 | 76 | 12 | 3.0 | 8.0 | 0.00 | 0.00 | 0.00 | 43 | 1017.3 |
| 20260507091004 | 75 | 11 | 4.0 | 9.0 | 0.00 | 0.00 | 0.00 | 44 | 1017.1 |
| 20260507090504 | 75 | 4 | 4.0 | 9.0 | 0.00 | 0.00 | 0.00 | 45 | 1017.1 |
| 20260507090006 | 75 | 9 | 4.0 | 9.0 | 0.00 | 0.00 | 0.00 | 46 | 1017.1 |
| 20260507085504 | 75 | 21 | 4.0 | 8.0 | 0.00 | 0.00 | 0.00 | 45 | 1017.0 |
| 20260507085003 | 75 | 31 | 4.0 | 8.0 | 0.00 | 0.00 | 0.00 | 42 | 1017.0 |
| 20260507084004 | 75 | 32 | 3.0 | 8.0 | 0.00 | 0.00 | 0.00 | 43 | 1017.3 |
| 20260507083005 | 75 | 36 | 5.0 | 11.0 | 0.00 | 0.00 | 0.00 | 42 | 1017.3 |
| 20260507082505 | 75 | 63 | 4.0 | 10.0 | 0.00 | 0.00 | 0.00 | 39 | 1017.2 |
| 20260507082004 | 75 | 59 | 4.0 | 10.0 | 0.00 | 0.00 | 0.00 | 37 | 1016.9 |
| 20260507081004 | 75 | 64 | 4.0 | 7.0 | 0.00 | 0.00 | 0.00 | 36 | 1017.2 |
| 20260507080504 | 75 | 31 | 3.0 | 7.0 | 0.00 | 0.00 | 0.00 | 35 | 1017.1 |
| 20260507080005 | 75 | 32 | 3.0 | 7.0 | 0.00 | 0.00 | 0.00 | 36 | 1017.2 |
| 20260507075503 | 75 | 42 | 4.0 | 9.0 | 0.00 | 0.00 | 0.00 | 36 | 1017.1 |
| 20260507074504 | 75 | 24 | 4.0 | 9.0 | 0.00 | 0.00 | 0.00 | 40 | 1017.1 |
| 20260507074004 | 75 | 25 | 3.0 | 8.0 | 0.00 | 0.00 | 0.00 | 42 | 1017.1 |
| 20260507073504 | 75 | 32 | 4.0 | 8.0 | 0.00 | 0.00 | 0.00 | 43 | 1016.9 |
| 20260507073004 | 75 | 22 | 4.0 | 8.0 | 0.00 | 0.00 | 0.00 | 44 | 1016.8 |
| 20260507072503 | 75 | 47 | 3.0 | 7.0 | 0.00 | 0.00 | 0.00 | 44 | 1016.7 |
| 20260507072004 | 74 | 86 | 3.0 | 7.0 | 0.00 | 0.00 | 0.00 | 42 | 1017.0 |
| 20260507071505 | 74 | 92 | 3.0 | 7.0 | 0.00 | 0.00 | 0.00 | 42 | 1016.8 |
| 20260507071004 | 74 | 93 | 3.0 | 6.0 | 0.00 | 0.00 | 0.00 | 41 | 1017.0 |
| 20260507070503 | 74 | 111 | 2.0 | 6.0 | 0.00 | 0.00 | 0.00 | 40 | 1016.8 |
| 20260507070009 | 74 | 126 | 2.0 | 6.0 | 0.00 | 0.00 | 0.00 | 41 | 1016.8 |
| 20260507065503 | 74 | 118 | 2.0 | 5.0 | 0.00 | 0.00 | 0.00 | 39 | 1017.1 |
| 20260507065004 | 73 | 96 | 2.0 | 6.0 | 0.00 | 0.00 | 0.00 | 38 | 1017.2 |
| 20260507064004 | 73 | 195 | 1.0 | 3.0 | 0.00 | 0.00 | 0.00 | 40 | 1017.1 |
| 20260507063504 | 72 | 209 | 1.0 | 4.0 | 0.00 | 0.00 | 0.00 | 42 | 1017.1 |
| 20260507062504 | 70 | 213 | 1.0 | 3.0 | 0.00 | 0.00 | 0.00 | 44 | 1017.1 |
| 20260507062004 | 69 | 190 | 1.0 | 3.0 | 0.00 | 0.00 | 0.00 | 44 | 1017.3 |
| 20260507061504 | 69 | 181 | 0.0 | 3.0 | 0.00 | 0.00 | 0.00 | 46 | 1017.1 |
| 20260507061004 | 68 | 191 | 0.0 | 3.0 | 0.00 | 0.00 | 0.00 | 48 | 1017.1 |
| 20260507060504 | 68 | 190 | 1.0 | 3.0 | 0.00 | 0.00 | 0.00 | 48 | 1017.1 |
| 20260507060004 | 67 | 181 | 0.0 | 4.0 | 0.00 | 0.00 | 0.00 | 49 | 1017.1 |
| 20260507055503 | 67 | 181 | 1.0 | 4.0 | 0.00 | 0.00 | 0.00 | 50 | 1017.2 |
| 20260507055003 | 67 | 189 | 1.0 | 4.0 | 0.00 | 0.00 | 0.00 | 52 | 1017.1 |
| 20260507054504 | 66 | 217 | 1.0 | 4.0 | 0.00 | 0.00 | 0.00 | 53 | 1017.0 |
| 20260507054004 | 66 | 289 | 1.0 | 4.0 | 0.00 | 0.00 | 0.00 | 55 | 1017.0 |
| 20260507053503 | 65 | 353 | 0.0 | 3.0 | 0.00 | 0.00 | 0.00 | 56 | 1017.1 |
| 20260507052504 | 64 | 94 | 0.0 | 2.0 | 0.00 | 0.00 | 0.00 | 59 | 1016.9 |
| 20260507052004 | 63 | 78 | 0.0 | 2.0 | 0.00 | 0.00 | 0.00 | 62 | 1017.0 |
| 20260507051504 | 62 | 114 | 0.0 | 2.0 | 0.00 | 0.00 | 0.00 | 62 | 1016.8 |
| 20260507051004 | 61 | 170 | 0.0 | 2.0 | 0.00 | 0.00 | 0.00 | 64 | 1016.9 |
| 20260507050504 | 60 | 202 | 0.0 | 4.0 | 0.00 | 0.00 | 0.00 | 64 | 1017.0 |
| 20260507050005 | 59 | 192 | 1.0 | 5.0 | 0.00 | 0.00 | 0.00 | 64 | 1017.0 |
| 20260507045504 | 59 | 185 | 3.0 | 6.0 | 0.00 | 0.00 | 0.00 | 65 | 1017.0 |
| 20260507044505 | 58 | 249 | 2.0 | 5.0 | 0.00 | 0.00 | 0.00 | 67 | 1016.7 |
| 20260507044004 | 58 | 236 | 1.0 | 4.0 | 0.00 | 0.00 | 0.00 | 69 | 1016.6 |